星链-30492 (STARLINK-30492 )

导读

STARLINK-30492是美国太空探索技术公司SpaceX星链(Starlink)星座的一颗卫星,于2023年9月24日发射入轨。星链星座旨在构建全球低轨宽带互联网,该卫星采用平板设计,配备氪工质霍尔推进器,具备自主避撞能力,服役寿命5-7年,退役后会主动离轨再入大气层烧毁,可避免太空垃圾残留。

Basic Information
目录编号:
57921
目录名称:
STARLINK-30492
国际标识:
2023-147J
轨道中心:
EARTH
卫星名称:
星链-30492
卫星全名:
星链-30492 (STARLINK-30492 )
卫星状态:
在轨 (已飞行995 天)
发射日期:
2023-09-24 UTC
国别 :
美国 (US)
星等 :
--
Orbit Information
数据来源 国际轨道数据 AOE轨道数据
星历时间 2026-06-14T23:21:12+0800
10小时前
查看轨道信息
2026-06-14T12:00:00+0800
21小时前
查看轨道信息
半长轴 6861.19km 6861.211km
偏心率 0.0000531 0.0001375
轨道倾角 43.001° 43.003°
近地点辐角 286.834° 259.324°
升交点赤经 137.826° 140.500°
平近点角 73.245° 16.228°
近地点 482.688km 482.13km
远地点 483.418km 484.018km
周期 94.267分钟 94.267分钟
每日圈数 15.275789 15.275718
Detailed Information
固有亮度:
5
最大亮度:
0.3
卫星平台:
Starlink v2.0 mini
覆盖范围:
全球
运营商:
太空探索技术公司
运营商所在国:
美国
制造商(研发单位):
太空探索技术公司
制造商所在国:
美国
使用方式:
暂无
Satellite Introduction
星链(Starlink)计划是由太空探索技术公司(SpaceX)提出的一个巨型低轨卫星互联网星座项目,计划在2019年至2024年间在太空搭建由约1.2万颗卫星组成的“星链”网络,其中1584颗将部署在地球上空550千米处的近地轨道,并从2020年开始工作。该卫星仍在工作。
2D Orbit Map
3D Orbit Map
Orbit Altitude Analysis Chart
Orbit Inclination Analysis Chart
Orbit Comprehensive Analysis Chart
View Comprehensive Chart